TimeEDT,TemperatureF,Dew PointF,Humidity,Sea Level PressureIn,VisibilityMPH,Wind Direction,Wind SpeedMPH,Gust SpeedMPH,PrecipitationIn,Events,Conditions,WindDirDegrees,DateUTC
12:55 AM,39.2,39.2,100,29.97,0.2,Calm,Calm,-,N/A,,Overcast,0,2012-10-03 04:55:00
2:55 AM,39.2,37.4,93,29.97,0.2,NW,3.5,-,N/A,,Overcast,310,2012-10-03 06:55:00
3:15 AM,41.0,39.2,93,29.96,0.8,Calm,Calm,-,N/A,,Overcast,0,2012-10-03 07:15:00
3:35 AM,37.4,35.6,93,29.96,0.2,NW,4.6,-,N/A,,Overcast,320,2012-10-03 07:35:00
3:55 AM,39.2,37.4,93,29.96,1.2,Calm,Calm,-,N/A,,Clear,0,2012-10-03 07:55:00
4:15 AM,41.0,39.2,93,29.96,1.5,Calm,Calm,-,N/A,,Clear,0,2012-10-03 08:15:00
4:35 AM,39.2,37.4,93,29.97,0.5,Calm,Calm,-,N/A,,Unknown,0,2012-10-03 08:35:00
4:55 AM,39.2,39.2,100,29.97,0.5,NW,3.5,-,N/A,,Mostly Cloudy,310,2012-10-03 08:55:00
5:15 AM,39.2,37.4,93,29.98,1.2,NNW,5.8,-,N/A,,Overcast,330,2012-10-03 09:15:00
5:35 AM,44.6,42.8,93,29.98,4.0,NNW,9.2,-,N/A,,Overcast,330,2012-10-03 09:35:00
5:55 AM,46.4,44.6,93,29.98,10.0,NNW,3.5,-,N/A,,Mostly Cloudy,340,2012-10-03 09:55:00
6:15 AM,44.6,42.8,93,29.99,1.5,Calm,Calm,-,N/A,,Scattered Clouds,0,2012-10-03 10:15:00
6:55 AM,42.8,41.0,93,29.99,0.2,Calm,Calm,-,N/A,,Overcast,0,2012-10-03 10:55:00
7:15 AM,42.8,39.2,87,29.99,0.2,Calm,Calm,-,N/A,,Overcast,0,2012-10-03 11:15:00
7:35 AM,41.0,39.2,93,29.99,0.2,Calm,Calm,-,N/A,,Overcast,0,2012-10-03 11:35:00
7:55 AM,41.0,39.2,93,30.00,0.2,Calm,Calm,-,N/A,,Overcast,0,2012-10-03 11:55:00
8:15 AM,39.2,37.4,93,29.99,0.5,Calm,Calm,-,N/A,,Mostly Cloudy,0,2012-10-03 12:15:00
8:35 AM,37.4,35.6,93,29.99,0.2,Calm,Calm,-,N/A,,Overcast,0,2012-10-03 12:35:00
8:55 AM,39.2,37.4,93,30.00,0.5,Calm,Calm,-,N/A,,Overcast,0,2012-10-03 12:55:00
9:15 AM,44.6,42.8,93,30.00,0.5,ESE,3.5,-,N/A,,Overcast,110,2012-10-03 13:15:00
9:35 AM,48.2,46.4,93,30.01,0.2,North,4.6,-,N/A,,Overcast,350,2012-10-03 13:35:00
10:35 AM,51.8,50.0,94,30.00,0.2,NW,3.5,-,N/A,,Overcast,320,2012-10-03 14:35:00
7:15 PM,59.0,53.6,82,29.98,10.0,Calm,Calm,-,N/A,,Clear,0,2012-10-03 23:15:00